Location: Silverdale
(47.6506°N, 122.6941°W)
Time: 05:35:19
(UTC+00:00)

Courier 1B Rocket - Pass Details

Date: 11 October 2022
Orbit: 920 x 1202 km, 28.3° (Epoch: 28 November)

Event Time Altitude Azimuth Distance (km) Brightness Sun altitude
Rises 02:46:52 0° 241° (WSW) 3,909 9.2 -13.4°
Reaches altitude 10° 02:51:27 10° 216° (SW) 2,881 7.9 -14.2°
Maximum altitude 02:54:26 13° 191° (S) 2,611 7.3 -14.7°
Drops below altitude 10° 02:57:20 10° 165° (SSE) 2,789 7.2 -15.2°
Enters shadow 02:59:43 - 149° (SSE) 3,214 7.4 -15.6°
